Weather History for Russell, KS

Change the Weather History Date:

Tuesday, February 19, 2013

  Actual Average Record
Temperature  
Mean Temperature 30 °F -  
Max Temperature 41 °F 49 °F 70 °F (1968)
Min Temperature 18 °F 23 °F 3 °F (1978)
Degree Days  
Heating Degree Days 36    
Moisture  
Dew Point 12 °F    
Average Humidity 56    
Maximum Humidity 78    
Minimum Humidity 33    
Precipitation  
Precipitation 0.00 in - - ()
Sea Level Pressure  
Sea Level Pressure 30.27 in    
Wind  
Wind Speed 7 mph (NE)    
Max Wind Speed 15 mph    
Max Gust Speed 16 mph    
Visibility 10 miles    
Events      
Averages and records for this station are not official NWS values.
T = Trace of Precipitation, MM = Missing Value Source: NWS Daily Summary

Daily Weather History Graph

Daily Weather History Graph

Search for Another Location

Airport:

Trip Planner

Search our weather history database for the weather conditions in past years. The results will help you decide how hot, cold, wet, or windy it might be!

Date:

Astronomy

Feb. 19, 2013 Rise Set
Actual Time 7:21 AM CST 6:17 PM CST
Civil Twilight 6:53 AM CST 6:44 PM CST
Nautical Twilight 6:22 AM CST 7:15 PM CST
Astronomical Twilight 5:52 AM CST 7:46 PM CST
Moon 12:52 PM CST (2/19) 2:52 AM CST (2/19)
Length of Visible Light 11h 50m
Length of Day
10h 56m
Waxing Gibbous, 67% of the Moon is Illuminated
Feb 19
Waxing Gibbous
Feb 25
Full
Mar 4
Last Quarter
Mar 11
New
Mar 19
First Quarter

Hourly Weather History & Observations

Time (CST) Temp. Windchill Dew Point Humidity Pressure Visibility Wind Dir Wind Speed Gust Speed Precip Events Conditions
12:53 AM 23.0 °F 17.0 °F 14.0 °F 68% 30.18 in 10.0 mi West 4.6 mph - N/A   Clear
1:53 AM 21.2 °F 14.9 °F 12.2 °F 68% 30.16 in 10.0 mi West 4.6 mph - N/A   Clear
2:53 AM 19.9 °F 13.4 °F 12.0 °F 71% 30.22 in 10.0 mi WNW 4.6 mph - N/A   Clear
3:53 AM 19.9 °F 11.1 °F 12.9 °F 74% 30.24 in 10.0 mi NNW 6.9 mph - 0.00 in   Clear
4:53 AM 18.0 °F 9.8 °F 12.0 °F 78% 30.26 in 10.0 mi NW 5.8 mph - N/A   Clear
5:53 AM 19.9 °F 13.4 °F 12.9 °F 74% 30.29 in 10.0 mi NNW 4.6 mph - N/A   Clear
6:53 AM 18.0 °F 8.7 °F 12.0 °F 78% 30.31 in 10.0 mi North 6.9 mph - N/A   Clear
7:53 AM 18.0 °F - 12.0 °F 78% 30.34 in 10.0 mi Calm Calm - N/A   Clear
8:53 AM 25.0 °F 15.5 °F 14.0 °F 63% 30.35 in 10.0 mi North 9.2 mph - N/A   Clear
9:53 AM 28.9 °F 21.1 °F 15.1 °F 56% 30.37 in 10.0 mi North 8.1 mph - N/A   Clear
10:53 AM 33.1 °F 26.9 °F 12.9 °F 43% 30.36 in 10.0 mi North 6.9 mph - N/A   Clear
12:53 PM 37.0 °F 31.6 °F 12.9 °F 37% 30.33 in 10.0 mi NE 6.9 mph - N/A   Clear
1:53 PM 39.9 °F 34.5 °F 14.0 °F 35% 30.29 in 10.0 mi ENE 8.1 mph - N/A   Clear
2:53 PM 41.0 °F 36.4 °F 14.0 °F 33% 30.21 in 10.0 mi East 6.9 mph - N/A   Clear
3:53 PM 39.9 °F 33.9 °F 15.1 °F 36% 30.25 in 10.0 mi East 9.2 mph 16.1 mph N/A   Clear
4:53 PM 39.0 °F 30.6 °F 14.0 °F 36% 30.22 in 10.0 mi East 15.0 mph - N/A   Clear
6:53 PM 28.0 °F 18.6 °F 12.0 °F 51% 30.27 in 10.0 mi East 10.4 mph - N/A   Clear
7:53 PM 28.0 °F 18.1 °F 12.0 °F 51% 30.26 in 10.0 mi East 11.5 mph - N/A   Clear
8:53 PM 27.0 °F 17.3 °F 10.9 °F 51% 30.28 in 10.0 mi East 10.4 mph - N/A   Clear
9:53 PM 25.0 °F 14.2 °F 10.0 °F 53% 30.27 in 10.0 mi East 11.5 mph - N/A   Clear
10:53 PM 24.1 °F 12.5 °F 9.0 °F 53% 30.27 in 10.0 mi East 12.7 mph - N/A   Clear
11:53 PM 21.9 °F 9.2 °F 8.1 °F 55% 30.25 in 10.0 mi East 13.8 mph - N/A   Clear